Regional Weather Roundup
Issued by NWS

Home | Current Version | Previous Version | Text Only | Print | Product List | Glossary On
Versions: 1 2 3 4 5 6 7 8 9 10 11 12 13 14 15 16 17 18 19 20 21 22 23 24 25 26 27 28 29 30 31 32 33 34 35 36 37 38 39 40 41 42 43 44 45 46 47 48 49 50
926
ASUS46 KSEW 120310
RWRWA

WASHINGTON REGIONAL WEATHER ROUNDUP
NATIONAL WEATHER SERVICE SEATTLE WA
700 PM PST THU FEB 11 2016

NOTE:"FAIR" INDICATES FEW OR NO CLOUDS BELOW 12,000 FEET WITH NO
SIGNIFICANT WEATHER AND/OR OBSTRUCTIONS TO VISIBILITY.

WAZ505-507>509-120400-
SEATTLE, TACOMA, EVERETT, AND VICINITY

CITY           SKY/WX    TMP DP  RH WIND       PRES   REMARKS
EVERETT        LGT RAIN  52  48  86 SE5       30.11S
BOEING FIELD   LGT RAIN  52  51  97 S6        30.12S
RENTON         LGT RAIN  54  50  86 S6        30.12S FOG
SEATAC AIRPORT LGT RAIN  51  49  92 SE8       30.12F
JBLM-MCCHORD   LGT RAIN  50  50 100 CALM      30.11S FOG
PUYALLUP       DRIZZLE   50  50 100 CALM      30.11F
BREMERTON      CLOUDY    50  50 100 CALM      30.16R
JBLM-FT LEWIS  LGT RAIN  51  51 100 CALM      30.11F FOG
TACOMA NARROWS LGT RAIN  50  50 100 CALM      30.12R FOG
$$

WAZ001-503-506-510-514-515-120400-
NORTH INTERIOR

CITY           SKY/WX    TMP DP  RH WIND       PRES   REMARKS
BELLINGHAM     LGT RAIN  48  46  93 NE8       30.09S
FRIDAY HARBOR  LGT RAIN  50  47  89 NE7       30.08F
EASTSOUND      LGT RAIN  48  46  93 E7        30.07S
PORT ANGELES   LGT RAIN  46  44  93 CALM      30.06F FOG
EDIZ HOOK      DRIZZLE   47  45  93 W6        30.06F
PORT TOWNSEND  CLOUDY    54  50  87 SE9       30.07F
NAS WHIDBEY    LGT RAIN  51  50  96 E9        30.12S
ARLINGTON      CLOUDY    50  45  81 E5        30.14R
BURLINGTON     CLOUDY    50  48  93 CALM      30.11R
$$

WAZ020-022-039-040-504-511-512-120400-
SOUTHWEST INTERIOR

CITY           SKY/WX    TMP DP  RH WIND       PRES   REMARKS
SHELTON        LGT RAIN  50  49  96 CALM      30.09S FOG
OLYMPIA        LGT RAIN  50  49  96 CALM      30.12R FOG
CHEHALIS       CLOUDY    54  54 100 S8        30.12S
KELSO          CLOUDY    54  48  82 SE3       30.15S
VANCOUVER      CLOUDY    50  47  89 CALM      30.14R
SCAPPOOSE, OR  CLOUDY    51  49  92 S3        30.13S
PORTLAND, OR   CLOUDY    50  46  86 E5        30.14R
$$

WAZ021-516-517-120400-
WASHINGTON COAST

CITY           SKY/WX    TMP DP  RH WIND       PRES   REMARKS
FORKS          LGT RAIN  54  53  97 S8        30.02S FOG
HOQUIAM        LGT RAIN  53  52  96 NE9       30.08S FOG
ASTORIA, OR    CLOUDY    54  53  97 CALM      30.08S
$$

WAZ019-023-024-040-518-519-120400-
CASCADE MOUNTAINS AND COLUMBIA GORGE

CITY           SKY/WX    TMP DP  RH WIND       PRES   REMARKS
STAMPEDE PASS  NOT AVBL
TROUTDALE, OR  CLOUDY    51  44  77 E23       30.13F
THE DALLES, OR CLOUDY    46  43  89 NE5       30.25R FOG
$$

WAZ026-027-041>044-520-521-120400-
EAST SLOPES

CITY           SKY/WX    TMP DP  RH WIND       PRES   REMARKS
OMAK           CLOUDY    35  31  85 CALM      30.28F
WENATCHEE      LGT RAIN  38  35  89 CALM      30.28R FOG
ELLENSBURG     LGT RAIN  36  33  89 E3        30.25S VSB 1/2
YAKIMA         LGT RAIN  45  41  86 CALM      30.25F
$$

WAZ028-034-035-120400-
COLUMBIA BASIN

CITY           SKY/WX    TMP DP  RH WIND       PRES   REMARKS
EPHRATA        LGT RAIN  42  37  82 NW12      30.25R
MOSES LAKE     LGT RAIN  41  38  89 NW12      30.25R
PASCO          CLOUDY    45  41  86 NW7       30.27R
HERMISTON, OR  CLOUDY    46  41  82 NE7       30.23S
$$

WAZ036>038-120400-
NORTHEAST WASHINGTON

CITY           SKY/WX    TMP DP  RH WIND       PRES   REMARKS
SPOKANE GEIGER LGT RAIN  40  38  93 NE6       30.23F
SPOKANE FELTS  CLOUDY    42  38  85 CALM      30.25F
FAIRCHILD AFB  CLOUDY    40  40 100 NE8       30.21F
COEURDALENE,ID CLOUDY    41  36  81 NE8       30.22F
DEER PARK      CLOUDY    41  35  79 N7        30.24F
$$

WAZ029>033-120400-
SOUTHEAST WASHINGTON

CITY           SKY/WX    TMP DP  RH WIND       PRES   REMARKS
PULLMAN        CLOUDY    45  39  79 SE8       30.25R
LEWISTON, ID   LGT RAIN  48  41  76 CALM      30.24R
WALLA WALLA    CLOUDY    44  42  93 W5        30.22F
PENDLETON, OR  CLOUDY    43  40  89 NW5       30.22R
$$




USA.gov is the U.S. government's official web portal to all federal, state and local government web resources and services.